Stündliche Wetter Czworka

Heute, 27 Oktober, Dienstag

Zeit Temperatur Niederschläge Wind Luftdruck Luftfeuchtigkeit
00:00 +10°C° 0 mm 2 m/S 738 mmHg 91%
01:00 +9°C° 0 mm 2 m/S 739 mmHg 94%
02:00 +10°C° 0 mm 2 m/S 739 mmHg 93%
03:00 +10°C° 0 mm 2 m/S 739 mmHg 91%
04:00 +10°C° 0 mm 2 m/S 739 mmHg 90%
05:00 +10°C° 0.1 mm 2 m/S 740 mmHg 90%
06:00 +10°C° 0.1 mm 2 m/S 740 mmHg 89%
07:00 +10°C° 0 mm 2 m/S 741 mmHg 85%
08:00 +10°C° 0 mm 2 m/S 741 mmHg 82%
09:00 +10°C° 0 mm 2 m/S 741 mmHg 80%
10:00 +10°C° 0 mm 2 m/S 741 mmHg 78%
11:00 +10°C° 0 mm 2 m/S 742 mmHg 76%
12:00 +10°C° 0 mm 2 m/S 742 mmHg 74%
13:00 +12°C° 0 mm 2 m/S 742 mmHg 73%
14:00 +10°C° 0 mm 2 m/S 742 mmHg 75%
15:00 +10°C° 0 mm 2 m/S 742 mmHg 78%
16:00 +10°C° 0 mm 2 m/S 742 mmHg 80%
17:00 +10°C° 0.1 mm 2 m/S 742 mmHg 81%
18:00 +10°C° 0.1 mm 2 m/S 743 mmHg 81%
19:00 +10°C° 0.1 mm 2 m/S 743 mmHg 82%
20:00 +9°C° 0 mm 2 m/S 743 mmHg 83%
21:00 +8°C° 0 mm 2 m/S 744 mmHg 85%
22:00 +8°C° 0 mm 2 m/S 744 mmHg 86%
23:00 +8°C° 0 mm 2 m/S 744 mmHg 86%

Morgen, 28 Oktober, Mittwoch

Zeit Temperatur Niederschläge Wind Luftdruck Luftfeuchtigkeit
00:00 +7°C° 0 mm 2 m/S 744 mmHg 85%
01:00 +7°C° 0 mm 2 m/S 744 mmHg 84%
02:00 +7°C° 0 mm 2 m/S 744 mmHg 85%
03:00 +7°C° 0 mm 2 m/S 744 mmHg 86%
04:00 +6°C° 0 mm 2 m/S 744 mmHg 87%
05:00 +5°C° 0 mm 3 m/S 744 mmHg 88%
06:00 +5°C° 0 mm 3 m/S 744 mmHg 88%
07:00 +5°C° 0 mm 3 m/S 744 mmHg 89%
08:00 +8°C° 0 mm 3 m/S 744 mmHg 82%
09:00 +10°C° 0 mm 4 m/S 744 mmHg 76%
10:00 +11°C° 0 mm 4 m/S 744 mmHg 69%
11:00 +13°C° 0 mm 5 m/S 744 mmHg 62%
12:00 +14°C° 0 mm 5 m/S 744 mmHg 54%
13:00 +15°C° 0 mm 5 m/S 744 mmHg 47%
14:00 +14°C° 0 mm 5 m/S 744 mmHg 50%
15:00 +13°C° 0 mm 4 m/S 744 mmHg 54%
16:00 +12°C° 0 mm 4 m/S 744 mmHg 57%
17:00 +11°C° 0 mm 4 m/S 745 mmHg 62%
18:00 +11°C° 0 mm 4 m/S 745 mmHg 67%
19:00 +10°C° 0 mm 4 m/S 745 mmHg 72%
20:00 +8°C° 0 mm 4 m/S 745 mmHg 75%
21:00 +8°C° 0 mm 4 m/S 745 mmHg 77%
22:00 +8°C° 0 mm 4 m/S 745 mmHg 79%
23:00 +8°C° 0 mm 4 m/S 746 mmHg 80%

übermorgen, 29 Oktober, Donnerstag

Zeit Temperatur Niederschläge Wind Luftdruck Luftfeuchtigkeit
00:00 +9°C° 0 mm 3 m/S 746 mmHg 81%
01:00 +8°C° 0 mm 3 m/S 746 mmHg 83%
02:00 +8°C° 0 mm 3 m/S 745 mmHg 83%
03:00 +8°C° 0 mm 3 m/S 745 mmHg 84%
04:00 +8°C° 0 mm 3 m/S 745 mmHg 85%
05:00 +8°C° 0 mm 3 m/S 745 mmHg 85%
06:00 +7°C° 0 mm 4 m/S 745 mmHg 84%
07:00 +7°C° 0 mm 4 m/S 745 mmHg 84%
08:00 +8°C° 0 mm 4 m/S 745 mmHg 79%
09:00 +9°C° 0 mm 5 m/S 745 mmHg 75%
10:00 +10°C° 0 mm 6 m/S 745 mmHg 70%
11:00 +10°C° 0.3 mm 5 m/S 745 mmHg 74%
12:00 +10°C° 0.3 mm 5 m/S 745 mmHg 78%
13:00 +9°C° 0.3 mm 5 m/S 745 mmHg 82%
14:00 +9°C° 0.2 mm 5 m/S 745 mmHg 80%
15:00 +9°C° 0.2 mm 5 m/S 745 mmHg 78%
16:00 +10°C° 0.2 mm 4 m/S 745 mmHg 76%
17:00 +8°C° 0 mm 4 m/S 746 mmHg 78%
18:00 +7°C° 0 mm 4 m/S 746 mmHg 79%
19:00 +7°C° 0 mm 4 m/S 747 mmHg 81%
20:00 +6°C° 0 mm 4 m/S 747 mmHg 82%
21:00 +6°C° 0 mm 4 m/S 748 mmHg 82%
22:00 +5°C° 0 mm 4 m/S 748 mmHg 83%
23:00 +5°C° 0 mm 4 m/S 749 mmHg 84%

30 Oktober, Freitag

Zeit Temperatur Niederschläge Wind Luftdruck Luftfeuchtigkeit
00:00 +5°C° 0 mm 4 m/S 749 mmHg 85%
01:00 +5°C° 0 mm 4 m/S 749 mmHg 85%
02:00 +4°C° 0 mm 4 m/S 749 mmHg 87%
03:00 +4°C° 0 mm 3 m/S 750 mmHg 88%
04:00 +4°C° 0 mm 3 m/S 750 mmHg 89%
05:00 +4°C° 0 mm 3 m/S 750 mmHg 88%
06:00 +4°C° 0 mm 3 m/S 749 mmHg 88%
07:00 +3°C° 0 mm 3 m/S 749 mmHg 87%
08:00 +5°C° 0 mm 3 m/S 749 mmHg 83%
09:00 +7°C° 0 mm 3 m/S 749 mmHg 78%
10:00 +7°C° 0 mm 4 m/S 749 mmHg 73%
11:00 +8°C° 0.6 mm 3 m/S 748 mmHg 80%
12:00 +8°C° 0.6 mm 3 m/S 748 mmHg 86%
13:00 +7°C° 0.6 mm 3 m/S 747 mmHg 92%
14:00 +7°C° 1.1 mm 4 m/S 747 mmHg 94%
15:00 +7°C° 1.1 mm 4 m/S 747 mmHg 95%
16:00 +8°C° 1.1 mm 4 m/S 747 mmHg 96%
17:00 +8°C° 0.8 mm 5 m/S 747 mmHg 96%
18:00 +9°C° 0.8 mm 5 m/S 747 mmHg 95%
19:00 +10°C° 0.8 mm 6 m/S 747 mmHg 94%
20:00 +10°C° 0.6 mm 6 m/S 747 mmHg 94%
21:00 +10°C° 0.6 mm 6 m/S 748 mmHg 94%
22:00 +10°C° 0.6 mm 6 m/S 748 mmHg 94%
23:00 +10°C° 0.3 mm 6 m/S 748 mmHg 94%

31 Oktober, Samstag

Zeit Temperatur Niederschläge Wind Luftdruck Luftfeuchtigkeit
00:00 +10°C° 0.3 mm 5 m/S 748 mmHg 95%
01:00 +10°C° 0.3 mm 5 m/S 748 mmHg 95%
02:00 +11°C° 0.3 mm 4 m/S 749 mmHg 96%
03:00 +11°C° 0.3 mm 4 m/S 749 mmHg 96%
04:00 +11°C° 0.3 mm 3 m/S 749 mmHg 97%
05:00 +10°C° 0.3 mm 3 m/S 750 mmHg 97%
06:00 +10°C° 0.3 mm 2 m/S 750 mmHg 97%
07:00 +10°C° 0.3 mm 2 m/S 750 mmHg 96%
08:00 +10°C° 0.1 mm 2 m/S 751 mmHg 94%
09:00 +10°C° 0.1 mm 2 m/S 751 mmHg 92%
10:00 +10°C° 0.1 mm 2 m/S 751 mmHg 90%
11:00 +10°C° 0.1 mm 2 m/S 752 mmHg 89%
12:00 +10°C° 0.1 mm 2 m/S 752 mmHg 87%
13:00 +10°C° 0.1 mm 2 m/S 752 mmHg 86%
14:00 +10°C° 0 mm 2 m/S 752 mmHg 86%
15:00 +10°C° 0 mm 2 m/S 752 mmHg 85%
16:00 +10°C° 0 mm 2 m/S 752 mmHg 85%
17:00 +10°C° 0 mm 2 m/S 753 mmHg 85%
18:00 +10°C° 0 mm 2 m/S 753 mmHg 84%
19:00 +10°C° 0 mm 2 m/S 753 mmHg 84%
20:00 +9°C° 0 mm 3 m/S 753 mmHg 84%
21:00 +9°C° 0 mm 3 m/S 753 mmHg 83%
22:00 +8°C° 0 mm 3 m/S 753 mmHg 83%
23:00 +7°C° 0 mm 4 m/S 753 mmHg 82%

1 November, Sonntag

Zeit Temperatur Niederschläge Wind Luftdruck Luftfeuchtigkeit
00:00 +6°C° 0 mm 4 m/S 753 mmHg 80%
01:00 +5°C° 0 mm 4 m/S 753 mmHg 79%
02:00 +5°C° 0 mm 4 m/S 753 mmHg 79%
03:00 +5°C° 0 mm 4 m/S 753 mmHg 79%
04:00 +5°C° 0 mm 4 m/S 753 mmHg 79%
05:00 +4°C° 0 mm 4 m/S 753 mmHg 79%
06:00 +4°C° 0 mm 4 m/S 753 mmHg 79%
07:00 +4°C° 0 mm 4 m/S 753 mmHg 79%
08:00 +6°C° 0 mm 4 m/S 753 mmHg 75%
09:00 +7°C° 0 mm 4 m/S 753 mmHg 72%
10:00 +8°C° 0 mm 4 m/S 753 mmHg 69%
11:00 +10°C° 0 mm 4 m/S 753 mmHg 69%
12:00 +11°C° 0 mm 4 m/S 752 mmHg 68%
13:00 +12°C° 0 mm 4 m/S 752 mmHg 68%
14:00 +12°C° 0 mm 3 m/S 752 mmHg 72%
15:00 +11°C° 0 mm 3 m/S 752 mmHg 76%
16:00 +11°C° 0 mm 3 m/S 752 mmHg 79%
17:00 +10°C° 0 mm 3 m/S 752 mmHg 83%
18:00 +10°C° 0 mm 3 m/S 752 mmHg 86%
19:00 +9°C° 0 mm 3 m/S 752 mmHg 89%
20:00 +9°C° 0 mm 3 m/S 752 mmHg 90%
21:00 +8°C° 0 mm 3 m/S 752 mmHg 92%
22:00 +8°C° 0 mm 3 m/S 752 mmHg 93%
23:00 +8°C° 0 mm 3 m/S 752 mmHg 93%
Mehr zeigen

Wir brauchen deine Erlaubnis

Meteoprog und unser Service Anbieter werden persönliche Daten aufbewahren, so wie Cookies, Geräte Bezeichnung oder ähnliche Technologien von deinem Gerät und Prozess, so wie Persönliche Daten Inhalte und Werbungen, genauso wie social Media und den Verkehr zu analysieren.

  • Aufbewahrung und/oder Zugang zu deiner Geräte Informationen.

    Cookies, Geräte Bezeichnung oder andere Informationen, können aufbewahrt oder Zugang zu deinem Gerät erhalten, für den Grund, der oben angegeben wird.

  • Personalisierte Werbung und Inhalte, Messungen, Einblick in das Publikum und Produkt Entwicklung.

    Werbungen und Inhalte können personalisiert werden, basierend auf ein Profil. Mehr Daten können besser personalisierte Werbungen und Inhalte hinzufügen. Werbung und Inhalte können gezeigt und gemessen werden. Einblicke über das Publikum, welche die Werbung gesehen haben und den Inhalt, können abgeleitet werden. So wie Daten können genutzt werden, um es zu verbessern oder die Benutzer Erfahrung zu verbessern das System und die Software.

Wenn du “Ich stimme zu” klickst, erlaubst du uns, die Cookies zu benutzen die Geräte Bezeichnung, den Web oder ähnliche Technologien zu benutzen. Deine Settings, können in deinem Gerät bei deinem Browser geändert werden.

Für den bestimmten Zweck, berechtigten Interessen beruhen darauf, mehr als auf den Inhalt. Du kannst mehr darüber in unseren Privaten und Cookie Politik lesen.